| time (UTC) | temp F | wind direction | speed knots | gust knots | rain 1hr in | rain 24hr in | rain mn in | humidity % | barometer mb |
| 20260507134515 | 43 | 251 | 14.8 | 21.7 | 0.00 | 0.33 | 0.01 | 89 | 1022.6 |
| 20260507133011 | 42 | 360 | 15.6 | 20.0 | 0.00 | 0.33 | 0.01 | 91 | 1023.0 |
| 20260507131513 | 40 | 248 | 13.9 | 18.2 | 0.00 | 0.33 | 0.01 | 92 | 1023.1 |
| 20260507130004 | 39 | 254 | 13.0 | 17.4 | 0.00 | 0.33 | 0.01 | 94 | 1023.0 |
| 20260507124502 | 37 | 249 | 11.3 | 13.9 | 0.01 | 0.33 | 0.01 | 94 | 1023.1 |
| 20260507123101 | 36 | 238 | 10.4 | 13.0 | 0.01 | 0.33 | 0.01 | 95 | 1023.0 |
| 20260507121608 | 35 | 242 | 9.6 | 12.2 | 0.01 | 0.33 | 0.01 | 95 | 1023.0 |
| 20260507114613 | 35 | 249 | 10.4 | 13.0 | 0.01 | 0.33 | 0.01 | 95 | 1023.2 |
| 20260507113054 | 35 | 246 | 8.7 | 11.3 | 0.00 | 0.32 | 0.00 | 95 | 1023.0 |
| 20260507111559 | 34 | 257 | 7.8 | 9.6 | 0.00 | 0.32 | 0.00 | 95 | 1022.9 |
| 20260507110054 | 34 | 256 | 7.0 | 9.6 | 0.00 | 0.32 | 0.00 | 95 | 1023.1 |
| 20260507104552 | 34 | 257 | 7.0 | 9.6 | 0.00 | 0.32 | 0.00 | 94 | 1023.3 |
| 20260507103049 | 35 | 264 | 5.2 | 8.7 | 0.00 | 0.32 | 0.00 | 95 | 1022.9 |
| 20260507101547 | 35 | 282 | 4.3 | 7.0 | 0.00 | 0.32 | 0.00 | 94 | 1023.3 |
| 20260507100046 | 35 | 267 | 4.3 | 7.8 | 0.00 | 0.32 | 0.00 | 94 | 1023.4 |
| 20260507094546 | 35 | 262 | 5.2 | 7.0 | 0.00 | 0.32 | 0.00 | 94 | 1023.5 |
| 20260507093052 | 35 | 258 | 4.3 | 7.0 | 0.00 | 0.32 | 0.00 | 94 | 1023.1 |
| 20260507091550 | 35 | 287 | 5.2 | 7.8 | 0.00 | 0.32 | 0.00 | 94 | 1023.2 |
| 20260507090041 | 35 | 269 | 2.6 | 5.2 | 0.00 | 0.32 | 0.00 | 94 | 1022.9 |
| 20260507084539 | 35 | 277 | 1.7 | 3.5 | 0.00 | 0.32 | 0.00 | 94 | 1022.9 |
| 20260507083039 | 35 | 276 | 1.7 | 3.5 | 0.00 | 0.32 | 0.00 | 94 | 1023.1 |
| 20260507081543 | 35 | 276 | 2.6 | 3.5 | 0.00 | 0.32 | 0.00 | 93 | 1023.4 |
| 20260507080032 | 36 | 314 | 0.0 | 0.0 | 0.00 | 0.32 | 0.00 | 93 | 1023.4 |
| 20260507074549 | 36 | 314 | 0.0 | 2.6 | 0.00 | 0.32 | 0.00 | 93 | 1023.5 |
| 20260507073028 | 36 | 315 | 2.6 | 3.5 | 0.00 | 0.32 | 0.00 | 93 | 1023.8 |
| 20260507071526 | 37 | 316 | 1.7 | 2.6 | 0.00 | 0.32 | 0.00 | 93 | 1024.0 |
| 20260507070024 | 38 | 317 | 1.7 | 4.3 | 0.00 | 0.32 | 0.00 | 93 | 1024.0 |
| 20260507064523 | 38 | 302 | 3.5 | 6.1 | 0.00 | 0.32 | 0.00 | 93 | 1024.1 |
| 20260507063025 | 38 | 5 | 1.7 | 2.6 | 0.00 | 0.32 | 0.00 | 93 | 1024.2 |
| 20260507061520 | 38 | 5 | 0.9 | 2.6 | 0.00 | 0.32 | 0.00 | 93 | 1024.3 |
| 20260507060025 | 38 | 5 | 0.9 | 2.6 | 0.00 | 0.32 | 0.00 | 93 | 1024.2 |
| 20260507054521 | 38 | 5 | 0.9 | 1.7 | 0.00 | 0.32 | 0.00 | 93 | 1024.1 |
| 20260507053019 | 38 | 5 | 0.9 | 2.6 | 0.00 | 0.32 | 0.00 | 93 | 1024.3 |
| 20260507051515 | 38 | 41 | 0.0 | 2.6 | 0.00 | 0.32 | 0.00 | 93 | 1024.4 |
| 20260507050024 | 39 | 42 | 1.7 | 2.6 | 0.01 | 0.32 | 0.00 | 93 | 1024.0 |
| 20260507044510 | 39 | 42 | 1.7 | 3.5 | 0.03 | 0.32 | 0.32 | 93 | 1024.1 |
| 20260507043010 | 39 | 44 | 2.6 | 5.2 | 0.08 | 0.32 | 0.32 | 93 | 1024.1 |
| 20260507041509 | 39 | 36 | 2.6 | 7.0 | 0.11 | 0.32 | 0.32 | 92 | 1024.1 |
| 20260507040009 | 39 | 28 | 5.2 | 10.4 | 0.15 | 0.31 | 0.31 | 92 | 1024.2 |
| 20260507034507 | 39 | 31 | 6.1 | 10.4 | 0.17 | 0.28 | 0.28 | 91 | 1024.2 |
| 20260507033016 | 40 | 42 | 3.5 | 9.6 | 0.19 | 0.24 | 0.24 | 91 | 1024.2 |
| 20260507031506 | 40 | 57 | 6.1 | 9.6 | 0.16 | 0.20 | 0.20 | 91 | 1023.4 |
| 20260507030004 | 40 | 43 | 4.3 | 9.6 | 0.12 | 0.15 | 0.15 | 90 | 1023.3 |
| 20260507024502 | 40 | 43 | 2.6 | 6.1 | 0.09 | 0.11 | 0.11 | 90 | 1023.5 |
| 20260507023106 | 40 | 47 | 2.6 | 9.6 | 0.04 | 0.05 | 0.05 | 90 | 1023.0 |
| 20260507021602 | 40 | 62 | 7.0 | 12.2 | 0.04 | 0.04 | 0.04 | 89 | 1022.4 |
| 20260507020100 | 41 | 29 | 13.0 | 18.2 | 0.03 | 0.03 | 0.03 | 87 | 1022.6 |
| 20260507014604 | 41 | 46 | 10.4 | 13.9 | 0.02 | 0.02 | 0.02 | 85 | 1022.8 |
| 20260507013055 | 42 | 46 | 10.4 | 16.5 | 0.01 | 0.01 | 0.01 | 82 | 1022.4 |
| 20260507011554 | 44 | 345 | 10.4 | 17.4 | 0.00 | 0.00 | 0.00 | 78 | 1021.7 |
| 20260507010052 | 46 | 39 | 11.3 | 16.5 | 0.00 | 0.00 | 0.00 | 70 | 1021.3 |
| 20260507004551 | 47 | 54 | 7.8 | 14.8 | 0.00 | 0.00 | 0.00 | 66 | 1021.2 |
| 20260507003051 | 48 | 55 | 13.0 | 18.2 | 0.00 | 0.00 | 0.00 | 65 | 1020.4 |
| 20260507001546 | 49 | 48 | 10.4 | 14.8 | 0.00 | 0.00 | 0.00 | 65 | 1020.1 |
| 20260507000044 | 49 | 44 | 8.7 | 14.8 | 0.00 | 0.00 | 0.00 | 65 | 1019.7 |
| 20260506234542 | 50 | 44 | 8.7 | 14.8 | 0.00 | 0.00 | 0.00 | 64 | 1019.2 |
| 20260506233046 | 51 | 42 | 8.7 | 14.8 | 0.00 | 0.00 | 0.00 | 63 | 1019.0 |
| 20260506231542 | 51 | 360 | 7.0 | 15.6 | 0.00 | 0.00 | 0.00 | 63 | 1018.8 |
| 20260506230041 | 51 | 360 | 12.2 | 19.1 | 0.00 | 0.00 | 0.00 | 63 | 1018.6 |
| 20260506224541 | 52 | 360 | 13.9 | 18.2 | 0.00 | 0.00 | 0.00 | 63 | 1018.2 |
| 20260506223040 | 51 | 360 | 10.4 | 19.1 | 0.00 | 0.00 | 0.00 | 66 | 1018.1 |
| 20260506221539 | 52 | 360 | 13.0 | 20.9 | 0.00 | 0.00 | 0.00 | 65 | 1018.2 |
| 20260506220039 | 52 | 360 | 11.3 | 17.4 | 0.00 | 0.00 | 0.00 | 64 | 1018.4 |
| 20260506214537 | 50 | 51 | 7.8 | 17.4 | 0.00 | 0.00 | 0.00 | 68 | 1018.4 |
| 20260506213037 | 50 | 78 | 7.8 | 18.2 | 0.00 | 0.00 | 0.00 | 70 | 1018.2 |
| 20260506211536 | 50 | 360 | 7.0 | 13.0 | 0.00 | 0.00 | 0.00 | 71 | 1018.4 |
| 20260506210035 | 50 | 71 | 5.2 | 11.3 | 0.00 | 0.00 | 0.00 | 72 | 1018.7 |
| 20260506204535 | 52 | 360 | 9.6 | 13.9 | 0.00 | 0.00 | 0.00 | 73 | 1018.8 |
| 20260506203034 | 49 | 360 | 7.8 | 13.0 | 0.00 | 0.00 | 0.00 | 74 | 1019.1 |
| 20260506201528 | 47 | 360 | 5.2 | 11.3 | 0.00 | 0.00 | 0.00 | 79 | 1019.3 |
| 20260506200026 | 46 | 360 | 5.2 | 9.6 | 0.00 | 0.00 | 0.00 | 81 | 1019.1 |
| 20260506194524 | 45 | 360 | 8.7 | 13.0 | 0.00 | 0.00 | 0.00 | 81 | 1019.1 |
| 20260506193021 | 44 | 360 | 7.0 | 13.9 | 0.00 | 0.00 | 0.00 | 84 | 1019.4 |
| 20260506191520 | 44 | 360 | 7.8 | 12.2 | 0.00 | 0.00 | 0.00 | 85 | 1019.2 |
| 20260506190019 | 43 | 360 | 7.0 | 11.3 | 0.00 | 0.00 | 0.00 | 86 | 1019.4 |
| 20260506184516 | 42 | 360 | 6.1 | 11.3 | 0.00 | 0.00 | 0.00 | 87 | 1019.7 |
| 20260506183014 | 42 | 360 | 6.1 | 11.3 | 0.00 | 0.00 | 0.00 | 89 | 1019.5 |
| 20260506181514 | 42 | 360 | 8.7 | 14.8 | 0.00 | 0.00 | 0.00 | 90 | 1019.3 |
| 20260506180014 | 41 | 360 | 8.7 | 12.2 | 0.00 | 0.00 | 0.00 | 90 | 1019.7 |
| 20260506174512 | 41 | 360 | 7.8 | 12.2 | 0.00 | 0.00 | 0.00 | 91 | 1019.6 |
| 20260506173012 | 41 | 360 | 8.7 | 13.0 | 0.00 | 0.00 | 0.00 | 91 | 1019.6 |
| 20260506171512 | 41 | 104 | 7.0 | 10.4 | 0.00 | 0.00 | 0.00 | 92 | 1019.2 |
| 20260506170009 | 40 | 79 | 7.8 | 12.2 | 0.00 | 0.00 | 0.00 | 91 | 1019.1 |
| 20260506164508 | 40 | 100 | 7.0 | 10.4 | 0.00 | 0.00 | 0.00 | 91 | 1019.2 |
| 20260506163017 | 40 | 86 | 5.2 | 9.6 | 0.00 | 0.00 | 0.00 | 90 | 1018.9 |
| 20260506161504 | 40 | 108 | 6.1 | 10.4 | 0.00 | 0.00 | 0.00 | 90 | 1019.0 |
| 20260506160011 | 40 | 74 | 6.1 | 10.4 | 0.00 | 0.00 | 0.00 | 89 | 1018.9 |
| 20260506154628 | 40 | 94 | 6.1 | 9.6 | 0.00 | 0.00 | 0.00 | 89 | 1018.3 |
| 20260506153110 | 40 | 92 | 6.1 | 9.6 | 0.00 | 0.00 | 0.00 | 88 | 1018.3 |
| 20260506151600 | 40 | 111 | 7.0 | 9.6 | 0.00 | 0.00 | 0.00 | 87 | 1018.0 |
| 20260506144557 | 40 | 80 | 7.0 | 10.4 | 0.00 | 0.00 | 0.00 | 86 | 1018.0 |
| 20260506143105 | 40 | 92 | 7.0 | 11.3 | 0.00 | 0.00 | 0.00 | 85 | 1017.9 |
| 20260506141554 | 40 | 113 | 8.7 | 12.2 | 0.00 | 0.00 | 0.00 | 84 | 1017.5 |
| 20260506140058 | 41 | 115 | 8.7 | 13.0 | 0.00 | 0.00 | 0.00 | 83 | 1017.5 |